           , 2.000,  2.148,  2.295,  2.443,  2.591,  2.739,  2.886,  3.034,  3.182,  3.329,  3.477,  3.625,  3.773,  3.920,  4.068,  4.216,  4.363,  4.511,  4.659,  4.807,  4.954,  5.102,  5.250,  5.398,  5.545,  5.693,  5.841,  5.988,  6.136,  6.284,  6.432,  6.579,  6.727,  6.875,  7.022,  7.170,  7.318,  7.466,  7.613,  7.761,  7.909,  8.056,  8.204,  8.352,  8.500,  8.647,  8.795,  8.943,  9.091,  9.238,  9.386,  9.534,  9.681,  9.829,  9.977, 10.125, 10.272, 10.420, 10.568, 10.715, 10.863, 11.011, 11.159, 11.306, 11.454, 11.602, 11.750, 11.897, 12.045, 12.193, 12.340, 12.488, 12.636, 12.784, 12.931, 13.079, 13.227, 13.374, 13.522, 13.670, 13.818, 13.965, 14.113, 14.261, 14.409, 14.556, 14.704, 14.852, 14.999, 15.147, 15.295, 15.443, 15.590, 15.738, 15.886, 16.033, 16.181, 16.329, 16.477, 16.624, 16.772, 16.920, 17.067, 17.215, 17.363, 17.511, 17.658, 17.806, 17.954, 18.102, 18.249, 18.397, 18.545, 18.692, 18.840, 18.988, 19.136, 19.283, 19.431, 19.579
2023/05/30 00:05,  999.0,   18.9,   19.6,   19.0,   19.1,   19.4,   18.9,   20.2,   20.2,   20.5,   19.8,   20.5,   21.2,   21.1,   20.6,   20.2,   19.4,   18.3,   17.0,   16.8,   16.8,   17.0,   16.7,   16.6,   16.6,   16.1,   16.5,   16.1,   15.6,   16.2,   18.9,   20.7,   22.1,   22.7,   22.7,   22.0,   23.5,   24.5,   25.7,   25.4,   24.4,   24.4,   25.2,   24.8,   25.6,   27.2,   26.8,   27.8,   27.8,   27.4,   26.7,   26.5,   27.0,   28.3,   29.0,   29.0,   29.1,   28.9,   28.6,   28.6,   28.6,   30.3,   30.9,   32.8,   34.3,   36.5,   38.3,   40.6,   43.8,   44.9,   42.7,   41.5,   43.5,   38.6,   33.5,   32.7,   32.0,  999.0,  999.0,  999.0,  999.0,   26.9,   27.6,   25.2,   26.1,  999.0,  999.0,    0.3,   -0.0,    0.6,  999.0,  999.0,    2.4,    1.7,  999.0,    0.2,   -0.1,  999.0,   19.1,  999.0,   17.9,   16.8,   17.7,   19.0,   21.5,   24.2,   19.0,   15.1,   17.4,  999.0,   14.9,   16.0,   15.2,   15.1,   11.4,    8.4,    7.9,    6.5,    5.7,    7.3
2023/05/30 00:15,   -0.0,   16.6,   18.3,   18.7,   19.0,   19.6,   20.0,   20.7,   19.6,   19.3,   18.8,   19.3,   19.0,   19.8,   20.0,   20.2,   20.3,   20.2,   19.9,   19.0,   18.5,   18.5,   18.4,   16.5,   16.8,   17.3,   16.4,   16.3,   16.6,   16.5,   17.8,   20.0,   21.1,   21.3,   22.1,   21.8,   21.9,   23.3,   24.8,   25.0,   24.6,   24.7,   24.8,   25.3,   25.0,   25.6,   26.7,   27.8,   27.9,   27.9,   28.4,   28.5,   28.8,   28.7,   28.6,   28.2,   27.9,   27.4,   27.8,   27.7,   27.6,   27.4,   27.6,   29.0,   31.4,   33.6,   35.7,   38.8,   42.8,   46.2,   43.8,   41.0,   44.4,   38.6,   32.8,   34.7,   31.9,  999.0,   26.2,   26.6,   30.1,   26.9,  999.0,  999.0,  999.0,  999.0,  999.0,  999.0,  999.0,  999.0,  999.0,  999.0,  999.0,  999.0,  999.0,  999.0,  999.0,  999.0,  999.0,  999.0,   19.9,  999.0,   15.7,   17.6,   20.8,   22.9,   17.1,   17.5,   18.3,  999.0,  999.0,   15.0,   13.6,   13.8,   10.2,    7.9,    6.8,    6.3,    5.7,    7.4
2023/05/30 00:25,   13.6,   13.5,   17.5,   17.9,   18.5,   18.9,   19.5,   19.5,   19.8,   19.9,   19.6,  999.0,   18.4,   18.9,   18.1,   18.9,   19.2,   19.8,   20.3,   20.8,   19.8,   19.0,   18.9,   19.0,   18.4,   17.6,   16.5,   16.1,   17.6,   19.0,   20.7,   20.3,   20.7,   20.6,   20.8,   20.7,   20.5,   21.8,   23.9,   25.5,   26.3,   27.0,   25.2,   24.9,   25.0,   26.5,   27.7,   27.8,   28.0,   28.4,   28.8,   28.5,   28.3,   27.5,   27.0,   26.5,   26.1,   25.6,   25.7,   26.3,   26.8,   27.7,   29.0,   30.9,   32.9,   34.8,   38.2,   41.9,   45.1,   44.1,   44.7,   41.5,   42.9,   37.9,   32.6,   34.4,   34.1,   31.8,  999.0,   27.8,   28.4,   27.1,   27.6,  999.0,   22.4,   23.6,  999.0,  999.0,  999.0,  999.0,  999.0,  999.0,  999.0,  999.0,  999.0,  999.0,  999.0,   17.8,   17.7,   18.9,   18.5,  999.0,   14.4,   17.9,   20.6,   22.7,   18.6,   17.5,   18.3,  999.0,  999.0,  999.0,   16.1,   14.4,   10.0,    9.6,    6.5,    6.8,    5.6,  999.0
2023/05/30 00:35,    1.2,   10.3,    8.5,  999.0,  999.0,   17.1,   17.8,   18.2,   18.5,   19.2,   19.7,   20.0,   20.0,   20.4,   21.2,   21.4,   21.1,   20.8,   20.1,   20.1,   20.1,   20.1,   20.1,   20.2,   20.3,   19.3,   18.7,   17.7,   18.8,   19.5,   20.0,   20.0,   20.1,   20.3,   19.8,   20.2,   21.4,   22.6,   23.3,   24.6,   26.1,   26.9,   26.2,   24.8,   24.0,   23.6,   24.5,   24.5,   25.8,   26.4,   27.2,   26.1,   26.1,   25.9,   25.8,   24.8,   24.2,   25.4,   26.9,   29.0,   30.1,   31.8,   33.1,   34.3,   35.5,   37.4,   40.1,   43.8,   45.3,   42.8,   43.2,   43.1,   42.2,   31.1,   34.2,   33.3,  999.0,  999.0,   27.5,   26.9,   27.3,   27.1,   24.6,  999.0,  999.0,  999.0,  999.0,   -0.0,  999.0,  999.0,  999.0,   22.9,   24.1,    1.2,  999.0,  999.0,  999.0,   20.2,   18.9,  999.0,  999.0,  999.0,  999.0,   16.8,   20.3,   22.1,   21.7,   16.2,   17.7,   16.4,  999.0,  999.0,  999.0,   13.5,   10.3,    8.9,    6.3,    6.3,    5.6,    7.3
2023/05/30 00:45,  999.0,   11.3,    7.9,   10.4,  999.0,   14.0,   16.6,   17.8,   18.3,   19.0,   17.9,  999.0,   19.2,   19.6,   20.3,   20.7,   21.2,   19.9,   19.7,   19.2,   19.8,   20.5,   20.3,   20.0,   19.7,   19.5,   19.9,   19.7,   19.4,   18.9,   19.5,   20.0,   19.9,   19.6,   19.4,   19.6,   19.9,   21.9,   23.2,   24.9,   25.5,   25.5,   25.3,   24.8,   24.0,   23.6,   23.0,   22.5,   23.3,   23.8,   24.7,   24.8,   24.3,   24.5,   24.9,   24.4,   24.7,   25.6,   27.1,   28.4,   29.5,   30.8,   32.4,   33.8,   35.1,   37.0,   39.3,   42.9,   45.9,   44.7,   41.5,   43.0,   45.5,   33.3,   34.1,   31.8,   30.5,   28.1,   28.0,   30.4,  999.0,  999.0,  999.0,   22.2,   22.5,  999.0,  999.0,  999.0,  999.0,  999.0,  999.0,   23.6,   23.5,    0.7,  999.0,  999.0,  999.0,   21.2,   18.4,  999.0,  999.0,  999.0,  999.0,   16.7,   19.6,   22.0,  999.0,   16.6,   16.2,   15.2,  999.0,  999.0,  999.0,   11.4,   10.0,  999.0,    5.7,    5.3,    5.3,    7.8
2023/05/30 00:55,   10.2,   12.5,   14.9,   17.4,  999.0,   20.0,  999.0,  999.0,   15.3,   15.2,   16.8,   17.3,   18.4,   19.5,   20.2,   20.3,   19.5,   19.9,   20.0,   20.4,   20.2,   20.3,   20.6,   20.2,   20.1,   20.2,   19.9,   20.0,   19.7,   20.3,   20.1,   20.1,   19.2,   19.3,   19.0,   19.7,   20.5,   21.1,   23.4,   25.4,   25.1,   24.8,   24.9,   24.7,   24.5,   24.0,   23.8,   22.9,   22.8,   23.1,   24.0,   25.1,   25.5,   25.6,   26.1,   25.8,   26.5,   26.9,   26.6,   27.8,   29.2,   30.5,   31.6,   32.7,   34.3,   36.6,   39.3,   43.1,   45.2,   44.3,   43.9,   41.3,   45.5,   33.3,   35.6,   30.5,   31.6,   26.4,   29.5,   31.6,  999.0,  999.0,  999.0,  999.0,   22.2,   25.4,  999.0,  999.0,  999.0,  999.0,   22.3,   23.7,   23.3,  999.0,  999.0,   11.3,  999.0,   22.2,   18.7,  999.0,   18.7,  999.0,  999.0,   17.9,   21.1,   24.0,  999.0,   17.8,   17.1,  999.0,  999.0,  999.0,  999.0,   11.6,   10.2,   10.3,    5.1,    4.6,    4.4,    6.6
2023/05/30 01:05,   11.2,   13.7,   13.8,  999.0,  999.0,   21.2,   21.0,   20.5,   20.7,   18.1,   18.8,   17.7,   18.5,   18.5,   17.8,   18.1,   19.6,   18.9,   19.4,   19.4,   20.0,   19.9,   19.9,   19.9,   20.3,   20.4,   20.0,   19.9,   20.0,   19.9,   18.9,   19.6,   20.7,   20.5,   19.0,   19.4,   19.7,   20.2,   21.7,   22.9,   23.6,   24.3,   24.8,   24.8,   24.3,   23.4,   23.5,   22.7,   22.9,   22.7,   23.4,   24.8,   25.4,   26.2,   26.5,   26.7,   28.4,   30.0,   29.9,   30.0,   30.7,   31.5,   32.2,   32.6,   34.1,   37.2,   41.0,   45.4,   44.3,   43.7,   43.2,   41.1,   46.4,   33.6,   36.5,   31.5,   30.7,   32.7,   28.1,   30.3,  999.0,  999.0,  999.0,  999.0,   22.1,   24.3,   18.7,  999.0,  999.0,  999.0,  999.0,   23.1,  999.0,  999.0,  999.0,  999.0,  999.0,   21.7,   18.9,   18.8,   18.7,  999.0,  999.0,   18.6,   22.7,   25.3,  999.0,   17.6,   18.5,  999.0,  999.0,   14.8,  999.0,    8.3,    9.8,    9.8,    6.0,    4.4,    5.7,    6.6
2023/05/30 01:15,   13.9,   16.2,   17.8,   19.7,  999.0,   20.1,   20.7,  999.0,   20.4,   20.8,   21.5,   20.9,   21.1,   21.6,   21.5,   20.4,   20.2,   19.7,   18.5,   18.2,   18.6,   19.0,   18.7,   19.4,   19.4,   18.8,   18.9,   19.0,   19.5,   19.2,   19.5,   19.8,   20.4,   20.6,   20.8,   20.2,   20.3,   20.6,   20.6,   21.4,   21.6,   22.1,   22.6,   23.2,   24.1,   24.4,   24.2,   24.3,   23.4,   23.5,   25.2,   25.9,   26.2,   27.6,   28.0,   28.0,   28.6,   29.2,   29.6,   30.1,   31.1,   32.0,   32.5,   33.5,   35.7,   39.6,   43.6,   43.2,   42.1,   41.9,   43.3,   41.1,   46.0,   34.4,   35.1,   30.8,  999.0,   33.0,  999.0,  999.0,  999.0,  999.0,  999.0,   23.1,   23.6,   22.9,   19.5,   21.2,  999.0,  999.0,  999.0,   24.2,  999.0,  999.0,  999.0,   20.4,  999.0,   22.1,   18.9,   17.9,   18.9,   18.6,  999.0,   19.6,   22.8,   25.8,  999.0,   17.7,   17.4,  999.0,  999.0,   14.5,   14.4,   11.9,    9.1,    9.6,    6.2,    5.1,    3.0,    7.1
2023/05/30 01:25,   13.2,   14.2,   14.8,   16.9,   17.6,   20.2,   19.6,  999.0,   20.8,   21.3,   21.3,   20.9,   20.7,   19.9,   20.7,   20.9,   20.0,   19.9,   20.1,   20.0,   20.2,   19.7,   20.0,   19.8,   19.5,   19.9,   20.0,   19.4,   19.5,   19.4,   19.5,   19.3,   19.4,   18.9,   19.5,   19.3,   19.3,   19.5,   20.0,   20.8,   20.3,   20.2,   20.4,   21.1,   21.8,   22.2,   23.0,   23.2,   23.4,   24.2,   25.0,   26.1,   27.0,   28.0,   28.3,   28.8,   29.3,   28.9,   28.8,   29.3,   30.1,   31.9,   33.2,   34.6,   37.2,   40.0,   44.3,   42.9,   43.9,   42.1,   45.8,   41.8,   46.1,   32.1,   35.2,  999.0,  999.0,  999.0,  999.0,  999.0,  999.0,  999.0,  999.0,   23.3,   24.1,  999.0,   21.3,  999.0,  999.0,  999.0,  999.0,   23.7,  999.0,  999.0,  999.0,  999.0,  999.0,  999.0,  999.0,   17.5,   19.3,   18.7,  999.0,   20.7,   22.8,  999.0,   21.3,   20.2,   17.4,   19.8,  999.0,  999.0,  999.0,   13.1,    7.5,    8.4,    5.2,    4.3,  999.0,  999.0
2023/05/30 01:35,   12.5,   13.5,   15.2,   18.4,   21.0,   21.7,  999.0,  999.0,   19.9,   20.6,   20.8,   22.3,   22.6,   21.2,   21.5,   21.1,   21.9,   18.8,   19.3,   19.4,   19.0,   19.1,   19.5,   19.2,   18.5,   19.2,   20.0,   19.3,   20.2,   20.3,   20.5,   20.0,   19.4,   19.5,   19.7,   20.4,   20.2,   20.7,   20.2,   20.0,   20.5,   19.8,   20.8,   21.7,   22.1,   21.2,   21.8,   24.0,   25.0,   25.6,   24.9,   26.1,   26.6,   27.6,   29.2,   28.8,   28.2,   29.1,   29.9,   29.0,   29.2,   29.7,   31.2,   32.4,   35.3,   38.4,   41.7,   43.3,   41.8,   42.7,   45.6,   42.1,   46.2,   36.0,   36.1,  999.0,  999.0,  999.0,  999.0,  999.0,  999.0,  999.0,  999.0,   23.5,   24.3,   20.8,   20.8,  999.0,  999.0,  999.0,  999.0,   22.9,  999.0,  999.0,  999.0,  999.0,  999.0,  999.0,   23.1,   18.1,   18.7,   20.4,  999.0,   19.8,   23.2,  999.0,  999.0,  999.0,   16.7,   16.8,  999.0,  999.0,  999.0,   14.1,    9.6,    9.5,    4.8,  999.0,  999.0,  999.0
